TimeEST,TemperatureF,Dew PointF,Humidity,Sea Level PressureIn,VisibilityMPH,Wind Direction,Wind SpeedMPH,Gust SpeedMPH,PrecipitationIn,Events,Conditions,WindDirDegrees,DateUTC
12:54 AM,21.0,14.0,74,29.94,10.0,ESE,3.5,-,N/A,,Clear,120,2014-02-20 05:54:00
1:54 AM,28.9,18.0,64,29.97,10.0,ESE,4.6,-,N/A,,Clear,120,2014-02-20 06:54:00
2:54 AM,28.0,18.0,66,29.98,10.0,Calm,Calm,-,N/A,,Clear,0,2014-02-20 07:54:00
3:54 AM,19.0,15.1,85,29.98,10.0,Calm,Calm,-,N/A,,Clear,0,2014-02-20 08:54:00
4:54 AM,21.0,16.0,81,29.97,10.0,SE,4.6,-,N/A,,Clear,130,2014-02-20 09:54:00
5:54 AM,16.0,12.0,84,29.97,10.0,South,3.5,-,N/A,,Clear,170,2014-02-20 10:54:00
6:54 AM,17.1,14.0,88,29.95,10.0,Calm,Calm,-,N/A,,Clear,0,2014-02-20 11:54:00
7:54 AM,19.0,15.1,85,29.94,10.0,Calm,Calm,-,N/A,,Clear,0,2014-02-20 12:54:00
8:54 AM,19.9,16.0,85,29.96,10.0,Calm,Calm,-,N/A,,Clear,0,2014-02-20 13:54:00
9:54 AM,24.1,18.0,77,29.94,10.0,Calm,Calm,-,N/A,,Clear,0,2014-02-20 14:54:00
10:54 AM,30.0,19.9,66,29.93,10.0,Calm,Calm,-,N/A,,Clear,0,2014-02-20 15:54:00
11:54 AM,35.1,19.9,54,29.90,10.0,East,12.7,20.7,N/A,,Scattered Clouds,90,2014-02-20 16:54:00
12:54 PM,37.0,21.9,54,29.89,10.0,ESE,11.5,-,N/A,,Scattered Clouds,120,2014-02-20 17:54:00
1:54 PM,39.0,25.0,57,29.82,10.0,SE,11.5,20.7,N/A,,Scattered Clouds,130,2014-02-20 18:54:00
2:54 PM,37.9,28.0,68,29.80,10.0,ESE,15.0,-,N/A,,Overcast,110,2014-02-20 19:54:00
3:54 PM,39.0,28.0,65,29.77,10.0,ESE,23.0,33.4,N/A,,Overcast,110,2014-02-20 20:54:00
4:54 PM,37.0,28.9,73,29.76,10.0,ESE,18.4,28.8,N/A,,Overcast,120,2014-02-20 21:54:00
5:54 PM,36.0,30.0,79,29.71,10.0,ESE,19.6,31.1,N/A,,Overcast,120,2014-02-20 22:54:00
6:08 PM,35.1,30.0,82,29.68,10.0,ESE,18.4,29.9,N/A,,Overcast,120,2014-02-20 23:08:00
6:39 PM,35.1,30.0,82,29.64,10.0,ESE,18.4,27.6,N/A,,Overcast,110,2014-02-20 23:39:00
6:54 PM,35.1,30.0,82,29.66,10.0,ESE,23.0,33.4,N/A,,Overcast,110,2014-02-20 23:54:00
7:21 PM,35.1,30.0,82,29.59,10.0,ESE,24.2,36.8,N/A,,Overcast,110,2014-02-21 00:21:00
7:54 PM,35.1,30.0,82,29.60,10.0,ESE,24.2,35.7,N/A,,Overcast,110,2014-02-21 00:54:00
8:08 PM,35.1,30.0,82,29.52,10.0,East,25.3,42.6,N/A,,Overcast,100,2014-02-21 01:08:00
8:54 PM,35.1,30.0,82,29.51,10.0,ESE,21.9,35.7,N/A,,Overcast,110,2014-02-21 01:54:00
9:35 PM,34.0,30.9,89,29.46,6.0,ESE,27.6,40.3,0.05,Rain,Light Rain,120,2014-02-21 02:35:00
9:54 PM,34.0,30.9,89,29.48,7.0,SE,20.7,33.4,0.07,Rain,Light Rain,130,2014-02-21 02:54:00
10:06 PM,34.0,30.9,89,29.43,5.0,ESE,20.7,40.3,0.03,Rain,Light Rain,120,2014-02-21 03:06:00
10:54 PM,34.0,33.1,96,29.39,4.0,ESE,24.2,38.0,0.07,Rain,Rain,110,2014-02-21 03:54:00
11:52 PM,33.8,30.2,87,29.29,10.0,ESE,18.4,29.9,0.00,,Overcast,120,2014-02-21 04:52:00
11:54 PM,34.0,32.0,92,29.31,10.0,ESE,16.1,29.9,0.00,,Overcast,120,2014-02-21 04:54:00